Regional Weather Roundup
Issued by NWS Tiyan, Guam

Home | Current Version | Previous Version | Text Only | Print | Product List | Glossary On
Versions: 1 2 3 4 5 6 7 8 9 10 11 12 13 14 15 16 17 18 19 20 21 22 23 24 25 26 27 28 29 30 31 32 33 34 35 36 37 38 39 40 41 42 43 44 45 46 47 48 49 50
000
ASGM40 PGUM 280212
RWRGUM
WEATHER ROUNDUP FOR THE MARIANAS
NATIONAL WEATHER SERVICE TIYAN GU
1200 PM CHST FRI APR 28 2017

GUZ001>004-280300-
MARIANA ISLANDS-

CITY           SKY/WX    TMP DP  RH WIND       PRES   REMARKS
GUAM AIRPORT   PTSUNNY   84  81  89 S9G16     29.93F HX  98
ANDERSEN AFB   PTSUNNY   84  77  79 SE12      29.94F HX  94
ROTA AIRPORT   PTSUNNY   77  73  88 SE7       29.94S
TINIAN AP      PTSUNNY   86  73  66 E13       29.92S HX  93
SAIPAN AP      PTSUNNY   84  75  74 SE8       29.93S HX  92

$$




USA.gov is the U.S. government's official web portal to all federal, state and local government web resources and services.